Weather History for Newton, KS

Change the Weather History Date:

Monday, May 13, 2013

  Actual Average Record
Temperature  
Mean Temperature 63 °F -  
Max Temperature 82 °F 72 °F 84 °F (1998)
Min Temperature 44 °F 52 °F 39 °F (1997)
Degree Days  
Heating Degree Days 2    
Growing Degree Days 13 (Base 50)    
Moisture  
Dew Point 47 °F    
Average Humidity 57    
Maximum Humidity 76    
Minimum Humidity 35    
Precipitation  
Precipitation 0.00 in - - ()
Sea Level Pressure  
Sea Level Pressure 30.06 in    
Wind  
Wind Speed 9 mph (SSE)    
Max Wind Speed 13 mph    
Max Gust Speed -    
Visibility 10 miles    
Events      
Averages and records for this station are not official NWS values.
T = Trace of Precipitation, MM = Missing Value Source: NWS Daily Summary

Daily Weather History Graph

Daily Weather History Graph

Search for Another Location

Airport:

Trip Planner

Search our weather history database for the weather conditions in past years. The results will help you decide how hot, cold, wet, or windy it might be!

Date:

Astronomy

May. 13, 2013 Rise Set
Actual Time 6:20 AM CDT 8:31 PM CDT
Civil Twilight 5:50 AM CDT 9:00 PM CDT
Nautical Twilight 5:14 AM CDT 9:36 PM CDT
Astronomical Twilight 4:35 AM CDT 10:16 PM CDT
Moon 9:07 AM CDT (5/13) 11:41 PM CDT (5/13)
Length of Visible Light 15h 10m
Length of Day
14h 11m
Waxing Crescent, 12% of the Moon is Illuminated
May 13
Waxing Crescent
May 17
First Quarter
May 24
Full
May 31
Last Quarter
Jun 8
New

Hourly Weather History & Observations

Time (CDT) Temp. Windchill Dew Point Humidity Pressure Visibility Wind Dir Wind Speed Gust Speed Precip Events Conditions
12:15 AM 50.0 °F - 39.2 °F 66% 30.13 in 10.0 mi ESE 10.4 mph - N/A   Clear
12:35 AM 50.0 °F - 39.2 °F 66% 30.13 in 10.0 mi ESE 10.4 mph - N/A   Clear
12:55 AM 48.2 °F - 41.0 °F 76% 30.13 in 10.0 mi SE 9.2 mph - N/A   Clear
1:15 AM 48.2 °F - 41.0 °F 76% 30.13 in 10.0 mi SE 8.1 mph - N/A   Clear
1:35 AM 48.2 °F - 39.2 °F 71% 30.12 in 10.0 mi SE 10.4 mph - N/A   Clear
1:55 AM 48.2 °F - 39.2 °F 71% 30.11 in 10.0 mi SE 10.4 mph - N/A   Clear
2:15 AM 48.2 °F - 39.2 °F 71% 30.11 in 10.0 mi SE 10.4 mph - N/A   Clear
2:35 AM 48.2 °F - 39.2 °F 71% 30.10 in 10.0 mi SE 9.2 mph - N/A   Clear
2:55 AM 48.2 °F - 39.2 °F 71% 30.09 in 10.0 mi SE 9.2 mph - N/A   Clear
3:15 AM 48.2 °F - 39.2 °F 71% 30.09 in 10.0 mi SE 9.2 mph - N/A   Clear
3:35 AM 46.4 °F 41.5 °F 39.2 °F 76% 30.08 in 10.0 mi SE 10.4 mph - N/A   Clear
3:55 AM 46.4 °F 41.9 °F 39.2 °F 76% 30.07 in 10.0 mi SE 9.2 mph - N/A   Clear
4:15 AM 46.4 °F 41.9 °F 39.2 °F 76% 30.07 in 10.0 mi SE 9.2 mph - N/A   Clear
4:35 AM 46.4 °F 41.9 °F 39.2 °F 76% 30.06 in 10.0 mi SE 9.2 mph - N/A   Clear
4:55 AM 44.6 °F 40.7 °F 37.4 °F 76% 30.06 in 10.0 mi SE 6.9 mph - N/A   Clear
5:15 AM 44.6 °F 40.2 °F 37.4 °F 76% 30.06 in 10.0 mi SE 8.1 mph - N/A   Clear
5:35 AM 46.4 °F 42.9 °F 39.2 °F 76% 30.07 in 10.0 mi ESE 6.9 mph - N/A   Clear
5:55 AM 46.4 °F 42.4 °F 37.4 °F 71% 30.07 in 10.0 mi ESE 8.1 mph - N/A   Clear
6:15 AM 46.4 °F 42.9 °F 39.2 °F 76% 30.07 in 10.0 mi ESE 6.9 mph - N/A   Clear
6:35 AM 46.4 °F 42.9 °F 37.4 °F 71% 30.07 in 10.0 mi ESE 6.9 mph - N/A   Clear
6:55 AM 46.4 °F 43.5 °F 39.2 °F 76% 30.08 in 10.0 mi ESE 5.8 mph - N/A   Clear
7:15 AM 48.2 °F - 39.2 °F 71% 30.08 in 10.0 mi ESE 4.6 mph - N/A   Clear
7:35 AM 50.0 °F - 41.0 °F 71% 30.08 in 10.0 mi ESE 6.9 mph - N/A   Clear
7:55 AM 51.8 °F - 42.8 °F 71% 30.09 in 10.0 mi ESE 5.8 mph - N/A   Clear
8:15 AM 53.6 °F - 42.8 °F 67% 30.08 in 10.0 mi ESE 6.9 mph - N/A   Clear
8:35 AM 53.6 °F - 42.8 °F 67% 30.09 in 10.0 mi ESE 8.1 mph - N/A   Clear
8:55 AM 55.4 °F - 42.8 °F 63% 30.09 in 10.0 mi ESE 5.8 mph - N/A   Clear
9:15 AM 57.2 °F - 44.6 °F 63% 30.09 in 10.0 mi SE 4.6 mph - N/A   Clear
9:35 AM 59.0 °F - 44.6 °F 59% 30.09 in 10.0 mi South 4.6 mph - N/A   Clear
9:55 AM 60.8 °F - 44.6 °F 55% 30.09 in 10.0 mi South 4.6 mph - N/A   Clear
10:15 AM 62.6 °F - 44.6 °F 52% 30.08 in 10.0 mi SSE 3.5 mph - N/A   Clear
10:35 AM 64.4 °F - 46.4 °F 52% 30.09 in 10.0 mi East 3.5 mph - N/A   Clear
10:55 AM 64.4 °F - 46.4 °F 52% 30.10 in 10.0 mi South 3.5 mph - N/A   Clear
11:15 AM 66.2 °F - 48.2 °F 52% 30.10 in 10.0 mi SSE 4.6 mph - N/A   Clear
11:35 AM 69.8 °F - 48.2 °F 46% 30.10 in 10.0 mi SE 6.9 mph - N/A   Clear
11:55 AM 69.8 °F - 48.2 °F 46% 30.09 in 10.0 mi SSE 6.9 mph - N/A   Clear
12:15 PM 71.6 °F - 48.2 °F 43% 30.09 in 10.0 mi ESE 6.9 mph - N/A   Clear
12:35 PM 73.4 °F - 50.0 °F 44% 30.09 in 10.0 mi SE 6.9 mph - N/A   Clear
12:55 PM 75.2 °F - 51.8 °F 44% 30.09 in 10.0 mi SE 9.2 mph - N/A   Clear
1:15 PM 77.0 °F - 51.8 °F 41% 30.09 in 10.0 mi SE 11.5 mph - N/A   Clear
1:35 PM 77.0 °F - 51.8 °F 41% 30.09 in 10.0 mi South 10.4 mph - N/A   Clear
1:55 PM 78.8 °F - 51.8 °F 39% 30.08 in 10.0 mi SSE 9.2 mph - N/A   Clear
2:15 PM 78.8 °F - 51.8 °F 39% 30.08 in 10.0 mi SE 9.2 mph - N/A   Clear
2:35 PM 78.8 °F - 51.8 °F 39% 30.07 in 10.0 mi SSE 10.4 mph - N/A   Clear
3:35 PM 82.4 °F - 53.6 °F 37% 30.05 in 10.0 mi SSE 9.2 mph - N/A   Clear
3:55 PM 82.4 °F - 53.6 °F 37% 30.05 in 10.0 mi South 10.4 mph - N/A   Clear
4:15 PM 82.4 °F - 53.6 °F 37% 30.04 in 10.0 mi South 12.7 mph - N/A   Clear
4:35 PM 80.6 °F - 53.6 °F 39% 30.03 in 10.0 mi South 10.4 mph - N/A   Clear
4:55 PM 82.4 °F - 53.6 °F 37% 30.03 in 10.0 mi South 11.5 mph - N/A   Clear
5:15 PM 82.4 °F - 51.8 °F 35% 30.02 in 10.0 mi South 12.7 mph - N/A   Clear
5:35 PM 82.4 °F - 51.8 °F 35% 30.02 in 10.0 mi South 12.7 mph - N/A   Clear
5:55 PM 82.4 °F - 53.6 °F 37% 30.01 in 10.0 mi South 12.7 mph - N/A   Clear
6:35 PM 80.6 °F - 53.6 °F 39% 30.00 in 10.0 mi South 11.5 mph - N/A   Clear
7:15 PM 78.8 °F - 57.2 °F 47% 30.00 in 10.0 mi South 6.9 mph - N/A   Clear
7:35 PM 75.2 °F - 53.6 °F 47% 29.99 in 10.0 mi South 9.2 mph - N/A   Clear
7:55 PM 75.2 °F - 53.6 °F 47% 29.99 in 10.0 mi South 6.9 mph - N/A   Clear
8:15 PM 73.4 °F - 53.6 °F 50% 29.99 in 10.0 mi South 9.2 mph - N/A   Clear
8:35 PM 71.6 °F - 53.6 °F 53% 29.99 in 10.0 mi South 8.1 mph - N/A   Clear
8:55 PM 69.8 °F - 53.6 °F 56% 29.99 in 10.0 mi South 8.1 mph - N/A   Clear
9:15 PM 69.8 °F - 53.6 °F 56% 29.99 in 10.0 mi SSE 9.2 mph - N/A   Clear
9:35 PM 69.8 °F - 53.6 °F 56% 29.99 in 10.0 mi SSE 8.1 mph - N/A   Clear
9:55 PM 69.8 °F - 53.6 °F 56% 29.99 in 10.0 mi South 10.4 mph - N/A   Clear
10:15 PM 68.0 °F - 53.6 °F 60% 29.99 in 10.0 mi South 11.5 mph - N/A   Clear
10:35 PM 68.0 °F - 53.6 °F 60% 29.99 in 10.0 mi SSE 9.2 mph - N/A   Clear
10:55 PM 69.8 °F - 53.6 °F 56% 29.99 in 10.0 mi South 10.4 mph - N/A   Clear
11:15 PM 69.8 °F - 53.6 °F 56% 29.98 in 10.0 mi South 10.4 mph - N/A   Clear
11:35 PM 68.0 °F - 53.6 °F 60% 29.98 in 10.0 mi South 11.5 mph - N/A   Clear
11:55 PM 66.2 °F - 53.6 °F 64% 29.97 in 10.0 mi SSE 9.2 mph - N/A   Clear